Weather History for Williamsport, PA

Change the Weather History Date:

Wednesday, October 26, 2011

  Actual Average Record
Temperature  
Mean Temperature 53 °F 48 °F  
Max Temperature 63 °F 59 °F 81 °F (1963)
Min Temperature 42 °F 38 °F 20 °F (1952)
Degree Days  
Heating Degree Days 12 17  
Month to date heating degree days 250 327  
Since 1 July heating degree days 316 455  
Cooling Degree Days 0 0  
Month to date cooling degree days 0 1  
Year to date cooling degree days 992 698  
Growing Degree Days 2 (Base 50)    
Moisture  
Dew Point 44 °F    
Average Humidity 75    
Maximum Humidity 89    
Minimum Humidity 60    
Precipitation  
Precipitation T in 0.10 in 0.94 in (1913)
Month to date precipitation 4.22 2.89  
Year to date precipitation 62.10 34.08  
Snow  
Snow 0.00 in - - ()
Month to date snowfall 0.0  
Since 1 July snowfall 0.0  
Since 1 September snowfall 0.0  
Snow Depth 0.00 in    
Sea Level Pressure  
Sea Level Pressure 29.84 in    
Wind  
Wind Speed 2 mph (SSE)    
Max Wind Speed 9 mph    
Max Gust Speed 13 mph    
Visibility 10 miles    
Events      
T = Trace of Precipitation, MM = Missing Value Source: NWS Daily Summary

Daily Weather History Graph

Daily Weather History Graph

Search for Another Location

Airport:

Trip Planner

Search our weather history database for the weather conditions in past years. The results will help you decide how hot, cold, wet, or windy it might be!

Date:

Astronomy

Oct. 26, 2011 Rise Set
Actual Time 7:31 AM EDT 6:11 PM EDT
Civil Twilight 7:03 AM EDT 6:39 PM EDT
Nautical Twilight 6:30 AM EDT 7:11 PM EDT
Astronomical Twilight 5:58 AM EDT 7:43 PM EDT
Moon 7:16 AM EDT (10/26) 5:51 PM EDT (10/26)
Length of Visible Light 11h 36m
Length of Day
10h 39m
Waning Crescent, 0% of the Moon is Illuminated
Oct 26
Waning Crescent
Oct 26
New
Nov 2
First Quarter
Nov 10
Full
Nov 18
Last Quarter

Hourly Weather History & Observations

Time (EDT) Temp. Windchill Dew Point Humidity Pressure Visibility Wind Dir Wind Speed Gust Speed Precip Events Conditions
12:54 AM 46.0 °F - 39.9 °F 79% 30.01 in 10.0 mi Calm Calm - N/A   Clear
1:54 AM 44.1 °F - 39.0 °F 82% 30.00 in 10.0 mi Calm Calm - N/A   Clear
2:54 AM 44.1 °F - 39.0 °F 82% 29.96 in 10.0 mi Calm Calm - N/A   Clear
3:54 AM 43.0 °F - 39.9 °F 89% 29.92 in 10.0 mi Calm Calm - N/A   Mostly Cloudy
4:54 AM 43.0 °F - 39.0 °F 86% 29.93 in 10.0 mi Calm Calm - N/A   Clear
5:54 AM 44.1 °F - 39.9 °F 85% 29.92 in 10.0 mi Calm Calm - N/A   Clear
6:54 AM 44.1 °F - 41.0 °F 89% 29.91 in 10.0 mi Calm Calm - N/A   Mostly Cloudy
7:54 AM 45.0 °F 43.5 °F 41.0 °F 86% 29.92 in 10.0 mi West 3.5 mph - N/A   Overcast
8:54 AM 46.0 °F 44.8 °F 42.1 °F 86% 29.89 in 10.0 mi East 3.5 mph - 0.00 in   Overcast
9:54 AM 46.9 °F - 42.1 °F 83% 29.89 in 10.0 mi WSW 4.6 mph - N/A   Overcast
10:54 AM 48.0 °F - 43.0 °F 83% 29.88 in 10.0 mi WSW 3.5 mph - N/A   Overcast
11:54 AM 50.0 °F - 43.0 °F 77% 29.87 in 10.0 mi Calm Calm - N/A   Overcast
12:54 PM 53.1 °F - 43.0 °F 69% 29.82 in 10.0 mi Calm Calm - N/A   Scattered Clouds
1:54 PM 57.9 °F - 44.1 °F 60% 29.78 in 10.0 mi ESE 3.5 mph - N/A   Scattered Clouds
2:54 PM 60.8 °F - 46.4 °F 59% 29.76 in 10.0 mi SE 3.5 mph - N/A   Overcast
3:54 PM 62.1 °F - 48.9 °F 62% 29.76 in 10.0 mi West 5.8 mph - N/A   Overcast
4:54 PM 59.0 °F - 48.9 °F 69% 29.75 in 10.0 mi ESE 4.6 mph - N/A   Overcast
5:54 PM 57.9 °F - 48.9 °F 72% 29.76 in 10.0 mi ESE 3.5 mph - N/A   Overcast
6:54 PM 57.0 °F - 48.9 °F 74% 29.76 in 10.0 mi East 3.5 mph - 0.00 in   Overcast
7:54 PM 55.9 °F - 50.0 °F 80% 29.76 in 10.0 mi Calm Calm - N/A   Overcast
8:54 PM 55.9 °F - 50.0 °F 80% 29.75 in 10.0 mi Calm Calm - N/A   Overcast
9:54 PM 55.9 °F - 48.9 °F 77% 29.74 in 10.0 mi Calm Calm - N/A   Overcast
10:54 PM 55.0 °F - 50.0 °F 83% 29.73 in 10.0 mi Calm Calm - N/A   Overcast
11:54 PM 54.0 °F - 50.0 °F 86% 29.72 in 10.0 mi Calm Calm - N/A   Overcast